User: anonymous   Login
Location: Unspecified
(0.0000°N, 0.0000°E)
Time: 03:40:09
(UTC+00:00)
Language:

OBJECT AA - Orbit

View from above orbital plane
View from above orbital plane
View from above satellite
View from above satellite

Ground track
Ground track

The orbit data is extracted from the following two-line orbital elements,

1 42849U 17042AA  17265.55199874 +.00000389 +00000-0 +43691-4 0  9997
2 42849 097.6084 172.8706 0008680 019.6587 340.4965 14.92036043010433
Epoch (UTC): 22 September 2017 13:14:52
Eccentricity: 0.0008680
inclination: 97.6084°
perigee height: 585 km
apogee height: 597 km
right ascension of ascending node: 172.8706°
argument of perigee: 19.6587°
revolutions per day: 14.92036043
mean anomaly at epoch: 340.4965°
orbit number at epoch: 1043

The dashed part of the orbit path shows where the satellite is in the earth's shadow,  

DLR